This demonstration page uses our WeatherBlox Daily Observations layout. Learn more.

38.88101, -77.10428

Hourly Observations for June 5, 2017

Temp ( °F °C ) Dew Point ( °F °C ) Humidity (%) Winds ( mph kmh ) Pressure ( in mb ) Visibility ( mi km ) Precip ( " mm )
12:52 am 00:52 Mostly Cloudy 76 24.4 65 18.3 69 69 SSW 12 19 29.8 1009 10 16.0934 0 0
1:52 am 01:52 Mostly Cloudy 75 23.9 65 18.3 71 71 SSW 10 17 29.79 1009 10 16.0934 0 0
2:52 am 02:52 Mostly Cloudy 74 23.3 65 18.3 74 74 SSW 9 15 29.78 1008 10 16.0934 0 0
3:52 am 03:52 Cloudy 73 22.8 67 19.4 81 81 SSW 9 15 29.76 1008 10 16.0934 0 0
4:52 am 04:52 Cloudy 72 22.2 67 19.4 84 84 SW 12 19 29.76 1008 10 16.0934 0 0
5:52 am 05:52 Cloudy 72 22.2 67 19.4 84 84 SSW 9 15 29.76 1008 10 16.0934 0 0
6:52 am 06:52 Cloudy 72 22.2 68 20 87 87 SW 9 15 29.77 1008 10 16.0934 0 0
7:52 am 07:52 Cloudy 73 22.8 68 20 84 84 SSW 10 17 29.77 1008 10 16.0934 0 0
8:52 am 08:52 Cloudy 73 22.8 68 20 84 84 SSW 7 11 29.78 1008 10 16.0934 0 0
9:52 am 09:52 Cloudy with Light Rain 74 23.3 68 20 82 82 SW 8 13 29.77 1008 10 16.0934 0 0.0254
10:52 am 10:52 Cloudy with Light Rain 74 23.3 69 20.6 85 85 SSW 10 17 29.77 1008 10 16.0934 0 0.0254
11:52 am 11:52 Cloudy 75 23.9 69 20.6 82 82 SSW 9 15 29.77 1008 10 16.0934 0 0.0254
12:52 pm 12:52 Cloudy 76 24.4 68 20 77 77 W 8 13 29.77 1008 10 16.0934 0 0.0254
1:52 pm 13:52 Cloudy 76 24.4 66 18.9 72 72 WSW 8 13 29.76 1008 10 16.0934 0 0
2:06 pm 14:06 Mostly Cloudy 76 24.4 66 18.9 72 72 WNW 6 9 29.74 1007 10 16.0934 0 0
2:31 pm 14:31 Cloudy 75 23.9 66 18.9 74 74 N 10 17 29.74 1007 10 16.0934 0 0
2:45 pm 14:45 Cloudy 74 23.3 68 20 82 82 NNW 14 22 29.74 1007 10 16.0934 0 0
2:52 pm 14:52 Cloudy with Light Rain 72 22.2 67 19.4 84 84 NNW 16 26 29.75 1007 10 16.0934 0 0.0254
3:52 pm 15:52 Cloudy 74 23.3 66 18.9 76 76 N 7 11 29.72 1007 10 16.0934 0 0.0254
4:52 pm 16:52 Cloudy 74 23.3 64 17.8 71 71 SSE 5 7 29.69 1006 10 16.0934 0 0
5:52 pm 17:52 Cloudy 74 23.3 66 18.9 76 76 S 5 7 29.68 1005 10 16.0934 0 0
6:52 pm 18:52 Mostly Cloudy 73 22.8 66 18.9 79 79 SSE 3 6 29.68 1005 10 16.0934 0 0
7:52 pm 19:52 Cloudy 73 22.8 66 18.9 79 79 S 3 6 29.69 1005 10 16.0934 0 0
8:27 pm 20:27 Cloudy 73 22.8 66 18.9 79 79 Calm 29.68 1005 10 16.0934 0 0
8:45 pm 20:45 Partly Cloudy 73 22.8 66 18.9 79 79 NNW 6 9 29.68 1005 10 16.0934 0 0
8:52 pm 20:52 Cloudy 73 22.8 66 18.9 79 79 NW 3 6 29.69 1005 10 16.0934 0 0
9:52 pm 21:52 Cloudy 73 22.8 66 18.9 79 79 WNW 5 7 29.68 1005 10 16.0934 0 0
10:52 pm 22:52 Cloudy 72 22.2 68 20 87 87 SE 3 6 29.67 1005 10 16.0934 0 0
11:52 pm 23:52 Mostly Cloudy 70 21.1 68 20 93 93 SSW 3 6 29.68 1005 10 16.0934 0 0

Powered by AerisWeather